This is the latest recevied weather packets stored in our database for station/object K7LDN-13. If no packets are shown the sender has not sent any weather packets the latest 10 day(s).
| Time | Temp. | Humidity | Pressure | Rain* | Wind** | Luminosity | Snow |
|---|---|---|---|---|---|---|---|
| 1777628861 | 6.67° C | 48% | 1021.4 hPa | 0 mm | - | 0 W/m² | - |
| 1777628557 | 6.11° C | 49% | 1021.3 hPa | 0 mm | - | 0 W/m² | - |
| 1777628253 | 6.11° C | 50% | 1021.3 hPa | 0 mm | - | 0 W/m² | - |
| 1777627949 | 6.67° C | 50% | 1021.2 hPa | 0 mm | - | 0 W/m² | - |
| 1777627643 | 7.22° C | 48% | 1021.2 hPa | 0 mm | - | 0 W/m² | - |
| 1777627343 | 7.78° C | 45% | 1021.4 hPa | 0 mm | - | 0 W/m² | - |
| 1777627040 | 7.22° C | 45% | 1021.3 hPa | 0 mm | - | 0 W/m² | - |
| 1777626736 | 7.78° C | 44% | 1021.1 hPa | 0 mm | - | 0 W/m² | - |
| 1777626432 | 7.78° C | 44% | 1021.2 hPa | 0 mm | - | 0 W/m² | - |
| 1777626131 | 7.78° C | 45% | 1021.2 hPa | 0 mm | - | 0 W/m² | - |
| 1777625826 | 7.78° C | 44% | 1021.3 hPa | 0 mm | - | 0 W/m² | - |
| 1777625522 | 8.33° C | 43% | 1021.2 hPa | 0 mm | - | 0 W/m² | - |
| 1777625217 | 8.33° C | 43% | 1021.3 hPa | 0 mm | - | 0 W/m² | - |
| 1777624914 | 8.89° C | 42% | 1021.2 hPa | 0 mm | - | 0 W/m² | - |
| 1777624610 | 8.33° C | 43% | 1021.3 hPa | 0 mm | - | 0 W/m² | - |
| 1777624310 | 8.33° C | 43% | 1021.3 hPa | 0 mm | - | 0 W/m² | - |
| 1777624009 | 8.33° C | 44% | 1021.3 hPa | 0 mm | - | 0 W/m² | - |
| 1777623706 | 8.33° C | 43% | 1021.6 hPa | 0 mm | - | 0 W/m² | - |
| 1777623403 | 8.33° C | 43% | 1021.3 hPa | 0 mm | - | 0 W/m² | - |
| 1777623099 | 8.33° C | 43% | 1021.6 hPa | 0 mm | - | 0 W/m² | - |
| 1777622797 | 8.33° C | 43% | 1021.3 hPa | 0 mm | - | 0 W/m² | - |
| 1777622493 | 8.33° C | 43% | 1021.4 hPa | 0 mm | - | 0 W/m² | - |
| 1777622190 | 8.33° C | 42% | 1021.4 hPa | 0 mm | - | 0 W/m² | - |
| 1777621885 | 8.89° C | 42% | 1021.4 hPa | 0 mm | - | 0 W/m² | - |
| 1777621581 | 8.89° C | 42% | 1021.2 hPa | 0 mm | - | 0 W/m² | - |
* Rain latest hour (hover to see other rain measurements)
** Current wind speed in m/s (hover to see current wind gust speed)